This demonstration page uses our WeatherBlox Daily Observations layout. Learn more.

Left ArrowRight Arrow

Hourly Observations for February 2, 2015

Temp ( °F °C ) Dew Point ( °F °C ) Humidity (%) Winds ( mph kmh ) Pressure ( in mb ) Visibility ( mi km ) Precip ( " mm )
12:00 am 00:00 Cloudy 41 5 38 3.3 89 89 W 9 15 29.59 1002 10 16.0934 N/A
12:07 am 00:07 Cloudy 41 5 38 3.3 89 89 WNW 9 15 29.59 1002 10 16.0934 N/A
12:53 am 00:53 Cloudy 39 3.9 37 2.8 93 93 W 9 15 29.58 1002 9 14.48406 N/A
1:14 am 01:14 Cloudy 39 3.9 36 2.2 89 89 W 12 19 29.62 1003 10 16.0934 N/A
1:38 am 01:38 Cloudy 39 3.9 36 2.2 89 89 W 10 17 29.62 1003 10 16.0934 N/A
1:53 am 01:53 Cloudy 38 3.3 35 1.7 89 89 WNW 13 20 29.6 1002 10 16.0934 N/A
2:37 am 02:37 Cloudy 37 2.8 33 0.6 86 86 W 12 19 29.65 1004 10 16.0934 N/A
2:53 am 02:53 Cloudy 36 2.2 33 0.6 89 89 W 13 20 29.63 1003 10 16.0934 N/A
3:15 am 03:15 Cloudy with Light Snow 32 undefined 29 -1.7 88 88 NNW 16 26 29.68 1005 5 8.0467 N/A
3:53 am 03:53 Cloudy 27 -2.8 22 -5.6 81 81 NNW 20 31 29.7 1006 10 16.0934 N/A
4:08 am 04:08 Cloudy with Light Snow 26 -3.3 22 -5.6 84 84 NW 17 28 29.77 1008 9 14.48406 N/A
4:53 am 04:53 Windy with Snow Likely 25 -3.9 18 -7.8 75 75 NW 20 31 29.76 1008 8 12.87472 N/A
5:53 am 05:53 Cloudy with Light Snow 23 -5 17 -8.3 78 78 NW 18 30 29.81 1010 4 6.43736 N/A
6:16 am 06:16 Cloudy with Light Snow 22 -5.6 16 -8.9 78 78 NW 17 28 29.88 1012 6 9.65604 N/A
6:33 am 06:33 Cloudy with Light Snow 22 -5.6 16 -8.9 78 78 NNW 12 19 29.88 1012 5 8.0467 N/A
6:53 am 06:53 Cloudy with Light Snow 21 -6.1 14 -10 74 74 NW 17 28 29.88 1012 6 9.65604 N/A
7:53 am 07:53 Cloudy with Light Snow 21 -6.1 13 -10.6 71 71 NNW 16 26 29.94 1014 9 14.48406 N/A
8:53 am 08:53 Windy with Snow Likely 19 -7.2 12 -11.1 74 74 WNW 20 31 30.01 1016 9 14.48406 N/A
9:53 am 09:53 Windy with Snow Likely 19 -7.2 12 -11.1 74 74 NW 20 31 30.06 1018 9 14.48406 N/A
10:53 am 10:53 Cloudy 21 -6.1 12 -11.1 68 68 NW 14 22 30.11 1020 10 16.0934 N/A
11:53 am 11:53 Cloudy 22 -5.6 13 -10.6 68 68 WNW 15 24 30.14 1021 10 16.0934 N/A
12:53 pm 12:53 Cloudy 23 -5 14 -10 68 68 WNW 13 20 30.16 1021 10 16.0934 N/A
1:53 pm 13:53 Cloudy 23 -5 13 -10.6 65 65 NW 12 19 30.16 1021 10 16.0934 N/A
2:40 pm 14:40 Partly Cloudy 24 -4.4 14 -10 65 65 WNW 13 20 30.18 1022 10 16.0934 N/A
2:53 pm 14:53 Mostly Cloudy 25 -3.9 14 -10 63 63 NW 14 22 30.18 1022 10 16.0934 N/A
3:53 pm 15:53 Cloudy 25 -3.9 13 -10.6 60 60 NW 13 20 30.19 1022 10 16.0934 N/A
4:10 pm 16:10 Mostly Cloudy 25 -3.9 12 -11.1 58 58 WNW 8 13 30.21 1023 10 16.0934 N/A
4:53 pm 16:53 Cloudy 25 -3.9 12 -11.1 58 58 WNW 12 19 30.22 1024 10 16.0934 N/A
5:53 pm 17:53 Mostly Cloudy 24 -4.4 10 -12.2 55 55 NW 8 13 30.25 1024 10 16.0934 N/A
6:53 pm 18:53 Clear 22 -5.6 9 -12.8 57 57 NW 7 11 30.27 1025 10 16.0934 N/A
7:53 pm 19:53 Clear 19 -7.2 10 -12.2 68 68 WNW 5 7 30.3 1026 10 16.0934 N/A
8:53 pm 20:53 Clear 16 -8.9 10 -12.2 77 77 N N/A 30.3 1026 10 16.0934 N/A
9:53 pm 21:53 Clear 14 -10 10 -12.2 84 84 N N/A 30.31 1026 10 16.0934 N/A
10:53 pm 22:53 Mostly Cloudy 17 -8.3 14 -10 88 88 N N/A 30.32 1027 10 16.0934 N/A
11:53 pm 23:53 Clear 17 -8.3 14 -10 88 88 N N/A 30.31 1026 10 16.0934 N/A

Powered by AerisWeather